Location: Emory University Observatory
(33.7903°N, 84.3267°W)
Time: 17:38:51
(UTC-05:00)

Envisat - Pass Details

Date: 14 October 2017
Orbit: 764 x 766 km, 98.2° (Epoch: 14 December)

Event Time Altitude Azimuth Distance (km) Brightness Sun altitude
Exits shadow 22:00:17 18° 331° (NNW) 1,799 5.3 -37.1°
Drops below altitude 10° 22:01:39 10° 336° (NNW) 2,308 5.8 -37.4°
Sets 22:04:02 0° 342° (NNW) 3,238 6.6 -37.8°
